This demonstration page uses our WeatherBlox Daily Observations layout. Learn more.

Left ArrowRight Arrow

40.92945, -100.16068

Hourly Observations for February 25, 2016

Temp ( °F °C ) Dew Point ( °F °C ) Humidity (%) Winds ( mph kmh ) Pressure ( in mb ) Visibility ( mi km ) Precip ( " mm )
12:15 am 00:15 Clear 27 -2.6 19 -7 72 72 WNW 9 15 30.33 1027 10 16.0934 N/A
12:35 am 00:35 Clear 26 -3.5 19 -7 77 77 WNW 9 15 30.36 1028 10 16.0934 N/A
12:55 am 00:55 Clear 26 -3.5 19 -7.1 76 76 NW 8 13 30.36 1028 10 16.0934 N/A
1:15 am 01:15 Clear 25 -4 19 -7.5 77 77 WNW 9 15 30.39 1029 10 16.0934 N/A
1:35 am 01:35 Clear 26 -3.5 19 -7.1 76 76 WNW 9 15 30.36 1028 10 16.0934 N/A
1:55 am 01:55 Clear 26 -3.5 19 -7.1 76 76 WNW 10 17 30.36 1028 10 16.0934 N/A
2:15 am 02:15 Partly Cloudy 26 -3.4 19 -7.5 74 74 WNW 12 19 30.36 1028 10 16.0934 N/A
2:35 am 02:35 Mostly Cloudy 27 -3 19 -7.3 73 73 WNW 12 19 30.36 1028 10 16.0934 N/A
2:55 am 02:55 Cloudy 28 -2.3 19 -7.2 69 69 WNW 14 22 30.36 1028 10 16.0934 N/A
3:15 am 03:15 Partly Cloudy 27 -2.6 19 -7.3 70 70 WNW 12 19 30.36 1028 10 16.0934 N/A
3:35 am 03:35 Clear 27 -2.7 19 -7.3 71 71 WNW 13 20 30.36 1028 10 16.0934 N/A
3:55 am 03:55 Clear 27 -3 19 -7.5 71 71 WNW 12 19 30.36 1028 10 16.0934 N/A
4:15 am 04:15 Clear 26 -3.2 19 -7.5 72 72 WNW 12 19 30.36 1028 10 16.0934 N/A
4:35 am 04:35 Partly Cloudy 26 -3.4 19 -7.5 74 74 WNW 10 17 30.42 1030 10 16.0934 N/A
4:55 am 04:55 Partly Cloudy 26 -3.3 19 -7.5 73 73 WNW 12 19 30.42 1030 10 16.0934 N/A
5:15 am 05:15 Partly Cloudy 26 -3.5 19 -7.5 74 74 WNW 12 19 30.42 1030 10 16.0934 N/A
5:35 am 05:35 Partly Cloudy 26 -3.5 19 -7.5 74 74 WNW 14 22 30.42 1030 10 16.0934 N/A
5:55 am 05:55 Mostly Cloudy 27 -3 19 -7 74 74 WNW 12 19 30.42 1030 10 16.0934 N/A
6:15 am 06:15 Mostly Cloudy 27 -3 19 -7 74 74 WNW 14 22 30.45 1031 10 16.0934 N/A
6:35 am 06:35 Mostly Cloudy 26 -3.1 19 -7.2 74 74 WNW 13 20 30.45 1031 10 16.0934 N/A
6:55 am 06:55 Partly Cloudy 25 -3.7 19 -7.5 75 75 WNW 14 22 30.45 1031 10 16.0934 N/A
7:15 am 07:15 Clear 25 -4 18 -7.7 76 76 NW 12 19 30.45 1031 10 16.0934 N/A
7:35 am 07:35 Sunny 24 -4.2 18 -8 75 75 NW 10 17 30.45 1031 10 16.0934 N/A
7:55 am 07:55 Sunny 24 -4.7 18 -7.8 79 79 WNW 10 17 30.48 1032 10 16.0934 N/A
8:15 am 08:15 Sunny 25 -4 19 -7.5 77 77 WNW 13 20 30.48 1032 10 16.0934 N/A
8:35 am 08:35 Sunny 26 -3.3 19 -7.4 74 74 NW 12 19 30.5 1033 10 16.0934 N/A
8:55 am 08:55 Partly Cloudy 28 -2.2 19 -7 70 70 NW 10 17 30.48 1032 10 16.0934 N/A
9:15 am 09:15 Mostly Cloudy 29 -1.4 20 -6.6 68 68 NW 14 22 30.48 1032 10 16.0934 N/A
9:35 am 09:35 Cloudy 31 -0.7 20 -6.9 63 63 NNW 18 30 30.48 1032 10 16.0934 N/A
9:55 am 09:55 Cloudy 31 -0.3 19 -7.1 61 61 N 20 31 30.5 1033 10 16.0934 N/A
10:15 am 10:15 Mostly Cloudy 32 0.2 19 -7.5 57 57 N 20 31 30.5 1033 10 16.0934 N/A
10:35 am 10:35 Mostly Cloudy 33 0.5 19 -7.4 56 56 N 16 26 30.5 1033 10 16.0934 N/A
10:55 am 10:55 Mostly Cloudy 33 0.3 18 -7.6 56 56 NW 17 28 30.5 1033 10 16.0934 N/A
11:15 am 11:15 Cloudy 34 1 20 -6.7 57 57 NW 15 24 30.5 1033 10 16.0934 N/A
11:35 am 11:35 Mostly Cloudy 36 2.1 19 -7.4 50 50 NNW 14 22 30.48 1032 10 16.0934 N/A
11:55 am 11:55 Cloudy 35 1.7 18 -7.7 50 50 N 13 20 30.48 1032 10 16.0934 N/A
12:15 pm 12:15 Mostly Cloudy 37 2.5 18 -7.8 47 47 N 12 19 30.48 1032 10 16.0934 N/A
12:35 pm 12:35 Partly Cloudy 37 2.5 18 -7.6 48 48 NNW 12 19 30.48 1032 10 16.0934 N/A
12:55 pm 12:55 Partly Cloudy 37 2.9 19 -7.5 47 47 N 10 17 30.48 1032 10 16.0934 N/A
1:15 pm 13:15 Sunny 38 3.2 18 -7.6 45 45 N 8 13 30.48 1032 10 16.0934 N/A
1:35 pm 13:35 Sunny 39 3.9 19 -7.3 44 44 NNW 14 22 30.48 1032 10 16.0934 N/A
1:55 pm 13:55 Sunny 39 4 18 -7.9 42 42 NNW 10 17 30.42 1030 10 16.0934 N/A
2:15 pm 14:15 Sunny 39 4 18 -8 42 42 NW 8 13 30.42 1030 10 16.0934 N/A
2:35 pm 14:35 Sunny 40 4.6 18 -8 40 40 WNW 7 11 30.42 1030 10 16.0934 N/A
2:55 pm 14:55 Sunny 41 5.1 18 -7.9 39 39 NNW 9 15 30.42 1030 10 16.0934 N/A
3:15 pm 15:15 Sunny 41 4.9 17 -8.4 38 38 N 10 17 30.42 1030 10 16.0934 N/A
3:35 pm 15:35 Sunny 42 5.8 17 -8.2 36 36 WNW 8 13 30.39 1029 10 16.0934 N/A
3:55 pm 15:55 Sunny 42 5.6 16 -8.8 35 35 NNW 8 13 30.39 1029 10 16.0934 N/A
4:15 pm 16:15 Sunny 43 5.9 16 -8.9 34 34 NNW 8 13 30.39 1029 10 16.0934 N/A
4:35 pm 16:35 Sunny 43 5.9 15 -9.2 33 33 NW 8 13 30.39 1029 10 16.0934 N/A
4:55 pm 16:55 Sunny 43 6 15 -9.2 33 33 WNW 6 9 30.39 1029 10 16.0934 N/A
5:15 pm 17:15 Sunny 43 5.9 15 -9.5 32 32 W 5 7 30.39 1029 10 16.0934 N/A
5:35 pm 17:35 Sunny 42 5.5 15 -9.6 33 33 WNW 6 9 30.39 1029 10 16.0934 N/A
5:55 pm 17:55 Sunny 41 5 15 -9.5 35 35 NW 3 6 30.36 1028 10 16.0934 N/A
6:15 pm 18:15 Sunny 39 4 14 -10 36 36 N N/A 30.39 1029 10 16.0934 N/A
6:35 pm 18:35 Clear 38 3.1 14 -9.9 38 38 N N/A 30.39 1029 10 16.0934 N/A
6:55 pm 18:55 Clear 33 0.6 16 -8.8 50 50 S 3 6 30.39 1029 10 16.0934 N/A
7:15 pm 19:15 Clear 33 0.5 15 -9.2 49 49 N N/A 30.39 1029 10 16.0934 N/A
7:35 pm 19:35 Hazy 32 undefined 16 -8.9 52 52 S 5 7 30.42 1030 5 8.0467 N/A
7:55 pm 19:55 Clear 30 -1 16 -9.1 55 55 SSW 3 6 30.42 1030 7 11.26538 N/A
8:15 pm 20:15 Clear 29 -1.4 16 -8.8 58 58 S 6 9 30.42 1030 10 16.0934 N/A
8:35 pm 20:35 Clear 29 -1.7 16 -8.8 59 59 S 6 9 30.42 1030 10 16.0934 N/A
8:55 pm 20:55 Clear 26 -3.2 16 -8.8 66 66 S 6 9 30.45 1031 10 16.0934 N/A
9:15 pm 21:15 Clear 26 -3.1 17 -8.6 66 66 SSW 5 7 30.45 1031 10 16.0934 N/A
9:35 pm 21:35 Clear 28 -2.4 16 -8.7 62 62 S 5 7 30.42 1030 10 16.0934 N/A
9:55 pm 21:55 Clear 27 -2.9 17 -8.6 65 65 S 6 9 30.42 1030 10 16.0934 N/A
10:15 pm 22:15 Clear 25 -3.7 16 -9 67 67 S 7 11 30.42 1030 10 16.0934 N/A
10:35 pm 22:35 Clear 24 -4.2 16 -9 70 70 SSW 6 9 30.42 1030 10 16.0934 N/A
10:55 pm 22:55 Clear 25 -4 16 -8.7 70 70 SSW 5 7 30.42 1030 10 16.0934 N/A
11:15 pm 23:15 Clear 27 -3 18 -7.8 70 70 SSW 6 9 30.42 1030 10 16.0934 N/A
11:35 pm 23:35 Clear 27 -3 16 -8.7 65 65 S 3 6 30.42 1030 10 16.0934 N/A
11:55 pm 23:55 Clear 25 -3.7 16 -8.9 68 68 S 5 7 30.39 1029 10 16.0934 N/A

Powered by AerisWeather